Other Public Products
Issued by NWS Grand Forks, ND

Home | Current Version | Previous Version | Graphics & Text | Print | Product List | Glossary On
Versions: 1 2 3 4 5 6 7 8 9 10 11 12 13 14 15 16 17 18 19 20 21 22 23 24 25 26 27 28 29 30 31 32 33 34 35 36 37 38 39 40 41 42 43 44 45 46 47 48 49 50
000
FPUS83 KFGF 300531
OPUFGF
PRAIRIE TO PINES WEATHER ROUNDUP
NATIONAL WEATHER SERVICE EASTERN NORTH DAKOTA/GRAND FORKS ND
1200 AM CDT TUE SEP 30 2014

 **SATELLITE DATA USED TO AUGMENT SKY COVER AT AUTOMATED STATIONS**
 *****  WEATHER ACROSS EASTERN NORTH DAKOTA  *****

CITY           SKY/WX    TMP DP  RH WIND       PRES   REMARKS
GRAND FORKS    CLEAR     48  44  86 SE8       30.05S
GRAND FORKS AF CLEAR     44  44  99 SE6       30.06S
GRAND CITY NWS   N/A     46 N/A N/A SE7         N/A
BUXTON           N/A     46  46  99 SE8         N/A
DEVILS LAKE    CLEAR     46  39  76 E9        30.00S
FARGO          CLEAR     49  44  83 SE12      30.06R
WAHPETON ARPT  CLEAR     46  43  87 SE12G17   30.06S
$$

 *****  WEATHER ACROSS CENTRAL AND WESTERN NORTH DAKOTA  *****

CITY           SKY/WX    TMP DP  RH WIND       PRES   REMARKS
JAMESTOWN      PTCLDY    50  46  86 SE10      29.99F
BISMARCK       CLOUDY    55  49  80 E12       29.95F
MINOT          CLOUDY    52  46  80 SE13      29.94F
MINOT AFB      CLOUDY    52  49  89 SE16      29.93F
GARRISON         N/A     53  48  83 SE13G24   29.94F
WILLISTON      CLOUDY    53  48  83 SE8       29.88F
DICKINSON      CLOUDY    51  49  92 SE10      29.86F
HETTINGER      LGT RAIN  52  50  93 E10       29.87F FOG
$$

 *****  OTHER OBSERVATIONS NORTHEAST NORTH DAKOTA  *****

CITY           SKY/WX    TMP DP  RH WIND       PRES   REMARKS
WALHALLA       FAIR      45  45 100 SE6       30.06S
LANGDON        FAIR      45  43  93 E12       30.03S
CAVALIER       FAIR      43  41  93 E3        30.05F
GRAFTON        MOCLDY    45  45 100 SE9       30.05F
CANDO          FAIR      45  45 100 SE9       30.02S
FORT TOTTEN      N/A     48  46  93 E7        29.95S
ROLLA          FAIR      45  45 100 SE6       30.02S
RUGBY          CLOUDY    50  48  93 E12       29.98F
 ***** THE ABOVE OBSERVATIONS ARE NON NWS ARE NOT QUALITY
        CONTROLLED AND MAY MIS-REPORT RAIN FOR SNOW...
$$

 *****  OTHER OBSERVATIONS SOUTHEAST NORTH DAKOTA *****

CITY           SKY/WX    TMP DP  RH WIND       PRES   REMARKS
COOPERSTOWN    NOT AVBL
VALLEY CITY    MOCLDY    48  48 100 SE14      30.02F
OAKES            N/A     50  50 100 E12       29.99F
GWINNER          N/A     50  48  93 E14       30.02F
SHEYENNE NWR     N/A     48  46  91 SE7       29.95S
BUFFALO          N/A     47  44  90 SE8         N/A
WYNDMERE         N/A     48  46  93 E7          N/A
 ***** THE ABOVE OBSERVATIONS ARE NON NWS ARE NOT QUALITY
       CONTROLLED AND MAY MIS-REPORT RAIN FOR SNOW...
$$

  *****  WEATHER ACROSS NORTHERN MINNESOTA  *****

CITY           SKY/WX    TMP DP  RH WIND       PRES   REMARKS
FLAG ISLAND    CLOUDY    46  43  87 S13       30.11F
WARROAD        CLEAR     41  37  87 SE8       30.13S
ROSEAU         CLEAR     43  37  81 SE10      30.11F
HALLOCK        CLEAR     45  43  93 E7        30.07S
THF RVR FALLS  CLEAR     45  43  93 E8        30.08F
HALSTAD          N/A     44  43  95 SE6         N/A
FOSSTON        CLEAR     43  41  93 SE9       30.09S
BAUDETTE       CLOUDY    43  40  89 SE9       30.13F
WASKISH        CLEAR     39  37  93 CALM      30.13F
CROOKSTON      CLEAR     46  43  87 SE8       30.08S
$$
  *****  WEATHER ACROSS CENTRAL AND WEST MINNESOTA  *****

CITY           SKY/WX    TMP DP  RH WIND       PRES   REMARKS
BEMIDJI        CLOUDY    47  43  87 SE10      30.11F
PARK RAPIDS    CLEAR     46  42  86 SE5       30.10S
WADENA         PTCLDY    41  39  93 E6        30.09F
DETROIT LAKES  PTCLDY    46  43  87 SE13G18   30.08F
MOORHEAD       NOT AVBL
FERGUS FALLS   PTCLDY    48  41  76 SE13      30.08S
ELBOW LAKE     CLOUDY    46  43  91 SE13      30.06F
MORRIS MN      CLEAR     46  43  87 E14       30.06F
STAPLES        CLOUDY    43  39  87 E8        30.11S
WHEATON        CLEAR     45  43  93 E6        30.07F
$$
  *****  WEATHER ELSEWHERE ACROSS MINNESOTA  *****

CITY           SKY/WX    TMP DP  RH WIND       PRES   REMARKS
DULUTH         CLOUDY    44  38  79 E10       30.16F
INTRNTL FALLS  CLOUDY    42  39  89 SE8       30.16F
ELY            CLOUDY    41  37  87 SE7       30.17F
CLOQUET        CLOUDY    43  39  87 E7        30.16S
BRAINERD       CLOUDY    42  39  89 E5        30.13F
HIBBING        CLOUDY    45  40  82 SE10      30.16F
ALEXANDRIA     CLOUDY    44  41  89 E9        30.10S
SAINT CLOUD    CLOUDY    45  40  82 E6G17     30.11F
MINNEAPOLIS    CLEAR     45  40  82 NE12      30.10F
$$

  *****  WEATHER ACROSS SOUTH DAKOTA  *****

CITY           SKY/WX    TMP DP  RH WIND       PRES   REMARKS
SIOUX FALLS    MOCLDY    55  50  83 E13       30.00S
BROOKINGS      NOT AVBL
WATERTOWN      PTCLDY    50  45  83 SE8       30.01F
HURON          PTCLDY    56  50  80 SE16      29.94F
SISSETON         N/A     50  47  89 SE9       30.03S
ABERDEEN       PTCLDY    53  49  86 E10       29.98F
MITCHELL       PTCLDY    59  55  87 E10       29.95S
PIERRE         CLOUDY    62  56  80 SE24G32   29.83F
MOBRIDGE       CLOUDY    55  50  83 E7        29.88F
RAPID CITY     HVY RAIN  52  51  97 NW6       29.81F FOG
$$

  *****  SOME WEATHER IN NEARBY STATES *****

CITY           SKY/WX    TMP DP  RH WIND       PRES   REMARKS
GLASGOW MT     PTCLDY    49  46  90 E15       29.76S
GREAT FALLS MT MOCLDY    54  44  69 SW13      29.68S
CHEYENNE WY    LGT RAIN  44  42  93 NW12      29.87R
SCOTTSBLUFF NE HVY RAIN  53  52  96 W14       29.68F FOG
OMAHA NE       MOCLDY    68  59  73 E5        29.97R
DES MOINES IA  CLEAR     65  59  81 NE8       29.99R
DAVENPORT IA   NOT AVBL
CHICAGO IL     CLOUDY    54  51  90 NE16      30.01F
EAU CLAIRE WI  CLOUDY    44  37  76 NE13      30.12R
LA CROSSE WI   CLEAR     50  44  80 NE8       30.08S
$$

  *****  SOME NATIONAL WEATHER *****

CITY           SKY/WX    TMP DP  RH WIND       PRES   REMARKS
LA GUARDIA NY  CLOUDY    71  59  65 SW9       29.92S
RALEIGH NC     MOCLDY    64  62  93 CALM      29.96F
ATLANTA GA     CLOUDY    68  64  88 NE7       29.96F
NEW ORLEANS LA PTCLDY    75  71  87 CALM      29.87F
OKLAHOMA CITY  PTCLDY    65  56  72 SE7       29.95R
ALBUQUERQUE NM PTCLDY    63  32  31 N10       30.05R
SALT LAKE CITY LGT RAIN  53  47  79 VRB6      30.02R
LOS ANGELES CA CLEAR     68  63  84 W5        29.87S
BOISE ID       CLOUDY    54  52  93 NE3       29.95S
SEATTLE WA     MOCLDY    58  52  80 S8        29.96R
$$

*** WEATHER ACROSS MANITOBA...SASKATCHEWAN AND ONTARIO ***
                ***ONTARIO***

CITY           SKY/WX    TMP DP  RH WIND       PRES   REMARKS
GERALDTON      CLEAR     30  28  93 CALM      30.20S
THUNDER BAY    CLOUDY    41  37  87 CALM      30.21F
SIOUX LOOKOUT  CLOUDY    39  36  87 SE3       30.19F
TORONTO        MOCLDY    63  59  88 CALM      29.85F
BIG TROUT LK   PTCLDY    41  34  75 SW15G22   30.09S
PICKLE LAKE    NOT AVBL
DRYDEN         CLOUDY    39  37  93 SE6       30.17F
KENORA         CLOUDY    43  39  87 S12       30.13F
$$
                *** MANITOBA***

CITY           SKY/WX    TMP DP  RH WIND       PRES   REMARKS
BRANDON        CLOUDY    46  43  87 E6        30.02F
DAUPHIN        CLEAR     41  37  87 E5        30.00F
ISLAND LAKE    PTCLDY    45  39  81 SW8       30.06S
PILOT MOUND      N/A     46  45  93 SE8         N/A
THE PAS        CLEAR     41  39  93 S7        29.91F
THOMPSON       CLEAR     39  39 100 S5        29.93F
WINNIPEG       MOCLDY    50  45  81 SE12      30.08F
LYNN LAKE      MOCLDY    43  37  81 S7        29.82F
CHURCHILL      CLOUDY    41  39  93 E6        29.93S
GILLAM         CLEAR     39  37  93 SW8       29.96S
$$
                ***SASKATCHEWAN***

CITY           SKY/WX    TMP DP  RH WIND       PRES   REMARKS
ESTEVAN        CLOUDY    50  46  87 SE15      29.90S
KINDERSLEY     CLOUDY    50  45  81 S21       29.65F
LLOYDMINSTER   PTCLDY    50  45  81 S14       29.62F
PRINCE ALBERT  CLOUDY    52  43  71 S12       29.78F
REGINA         CLOUDY    48  43  81 SE21G31   29.83F


USA.gov is the U.S. government's official web portal to all federal, state and local government web resources and services.